Date,TemperatureHighF,TemperatureAvgF,TemperatureLowF,DewpointHighF,DewpointAvgF,DewpointLowF,HumidityHigh,HumidityAvg,HumidityLow,PressureMaxIn,PressureMinIn,WindSpeedMaxMPH,WindSpeedAvgMPH,GustSpeedMaxMPH,PrecipitationSumIn
2013-2-23,37.4,30.8,24.8,28.1,20.8,-99.9,84,70,54,29.92,29.75,4,-17,0,0.07
2013-2-24,41.0,32.9,26.6,27.4,24.9,20.1,89,73,56,29.91,29.54,6,2,0,0.22
2013-2-25,41.0,31.2,19.4,30.9,25.0,15.9,90,78,57,29.96,29.47,6,2,0,0.00
2013-2-26,35.6,27.3,14.0,28.8,21.9,10.3,90,80,65,29.98,29.87,4,2,0,0.09
2013-2-27,39.2,30.1,21.2,27.1,21.2,-53.6,91,72,45,30.01,29.87,3,1,0,0.02
2013-2-28,35.6,28.5,15.8,29.7,23.6,12.1,91,82,67,30.07,29.85,7,2,0,0.00
2013-3-1,42.8,35.7,30.2,37.1,32.1,27.7,98,87,73,29.92,29.89,4,1,0,0.00
2013-3-2,41.0,33.7,30.2,36.8,32.2,27.1,98,95,85,29.79,29.66,5,1,0,0.42
2013-3-3,33.8,29.2,26.6,29.7,25.9,22.7,98,88,78,30.11,29.79,6,2,0,0.01
2013-3-4,41.0,30.0,21.2,31.6,26.4,19.0,98,87,67,30.12,29.97,0,0,0,0.09
2013-3-5,39.2,29.0,21.2,28.5,23.1,18.7,97,79,55,29.98,29.72,4,1,0,0.24
2013-3-6,35.6,29.6,24.8,28.1,25.1,21.2,91,83,71,29.72,29.57,3,0,0,0.08
2013-3-7,37.4,28.9,19.4,24.7,20.4,15.4,88,71,48,29.93,29.68,3,0,0,0.00
2013-3-8,42.8,31.5,21.2,27.5,22.5,17.1,85,71,42,30.02,29.90,4,0,0,0.00
2013-3-9,46.4,30.3,14.0,28.6,20.9,10.3,88,70,43,30.16,30.02,4,0,0,0.00
2013-3-10,44.6,32.5,21.2,26.9,23.8,16.3,90,72,43,30.18,30.05,5,1,0,0.00
2013-3-11,37.4,27.1,12.2,26.2,15.7,7.5,88,64,42,30.25,29.96,4,1,0,0.00
2013-3-12,42.8,33.8,28.4,36.2,29.9,25.0,90,86,76,29.95,29.59,5,2,0,0.22
2013-3-13,55.4,42.8,32.0,35.8,31.8,29.1,90,68,41,29.79,29.61,6,1,0,0.00
2013-3-14,51.8,41.8,35.6,38.3,33.6,27.8,87,73,50,29.80,29.65,5,2,0,0.16
2013-3-15,50.0,37.8,28.4,32.3,27.8,25.1,90,70,38,29.91,29.75,4,0,0,0.00
2013-3-16,42.8,33.4,26.6,34.0,28.7,24.1,98,83,64,29.81,29.43,5,0,0,0.00
2013-3-17,41.0,27.4,17.6,27.8,23.1,14.1,97,82,59,29.79,29.54,5,1,0,0.37
2013-3-18,35.6,26.9,17.6,27.1,20.9,14.1,91,79,54,29.95,29.72,3,0,0,0.18
2013-3-19,39.2,26.2,8.6,24.3,17.4,4.3,88,70,50,29.98,29.41,5,2,0,0.08
2013-3-20,51.8,38.1,32.0,36.6,28.7,23.3,98,70,43,29.41,29.04,7,3,0,0.01
2013-3-21,33.8,29.1,17.6,31.5,19.3,14.1,98,67,51,29.90,29.42,5,1,0,0.21
2013-3-22,33.8,24.3,14.0,22.9,17.0,10.3,89,75,45,30.14,29.90,5,1,0,0.01
2013-3-23,39.2,23.1,8.6,20.5,10.8,3.2,86,62,30,30.17,30.08,5,1,0,0.97
2013-3-24,44.6,29.0,12.2,19.7,14.6,7.0,81,57,32,30.12,29.95,6,1,0,0.00
2013-3-25,50.0,37.0,30.2,26.8,21.5,17.7,68,54,40,29.97,29.81,5,1,0,0.00
2013-3-26,50.0,37.6,24.8,28.4,22.9,18.5,80,58,37,29.86,29.79,6,1,0,0.00
2013-3-27,50.0,38.2,30.2,27.8,25.4,23.5,78,61,42,29.88,29.84,0,0,0,0.00
2013-3-28,55.4,39.5,26.6,30.9,25.1,22.1,87,60,31,29.94,29.88,4,1,0,0.00
2013-3-29,53.6,40.0,26.6,32.7,26.0,22.4,86,60,33,30.11,29.94,5,1,0,0.00
2013-3-30,57.2,40.6,24.8,30.9,24.6,21.2,86,57,28,30.19,30.04,5,1,0,0.97
2013-3-31,59.0,41.2,26.6,34.1,26.8,21.9,85,60,33,30.07,29.92,5,1,0,0.00
2013-4-1,68.0,45.6,26.6,36.4,27.7,-41.5,87,56,24,29.92,29.77,5,1,0,0.00
2013-4-2,59.0,42.8,32.0,41.2,31.6,25.0,89,66,37,29.94,29.84,3,0,0,0.00
2013-4-3,53.6,39.8,28.4,33.3,26.7,20.6,98,64,32,30.04,29.88,8,1,0,0.00
2013-4-4,55.4,40.2,30.2,42.3,32.3,18.9,98,73,44,29.88,29.42,6,1,0,0.37
2013-4-5,51.8,42.1,33.8,42.6,39.5,33.3,98,91,61,29.56,29.39,4,1,0,0.26
2013-4-6,53.6,40.8,33.8,39.9,35.2,30.5,98,83,41,29.63,29.42,5,2,0,0.19
2013-4-7,50.0,36.9,32.0,37.2,33.1,29.1,98,87,53,29.68,29.51,5,1,0,0.24
2013-4-8,44.6,34.4,26.6,28.9,24.5,21.6,88,68,45,30.05,29.69,5,2,0,0.00
2013-4-9,46.4,36.7,23.0,38.3,29.7,19.4,88,76,55,30.06,29.79,4,2,0,0.01
2013-4-10,48.2,41.0,35.6,39.2,35.1,32.0,98,80,62,29.81,29.58,6,2,0,0.26
2013-4-11,44.6,35.3,28.4,35.1,25.2,17.0,98,69,38,30.05,29.81,6,1,0,0.17
2013-4-12,42.8,35.6,28.4,31.5,26.1,20.2,76,68,58,29.93,29.28,6,2,0,0.00
2013-4-13,44.6,35.5,28.4,26.2,22.3,17.1,85,61,35,29.73,29.29,8,2,0,0.00
2013-4-14,46.4,35.7,28.4,34.4,27.7,20.8,89,74,44,29.82,29.73,5,1,0,0.04
2013-4-15,46.4,35.5,26.6,29.1,24.3,19.6,98,66,38,30.08,29.83,5,1,0,0.00
2013-4-16,51.8,34.7,21.2,24.4,19.2,13.4,86,58,26,30.24,30.08,6,1,0,0.00
2013-4-17,55.4,40.9,24.8,30.7,24.4,18.3,79,55,31,30.18,30.04,4,1,0,0.00
2013-4-18,55.4,43.8,35.6,39.8,33.4,27.8,90,68,45,30.10,29.78,5,1,0,0.08
2013-4-19,55.4,44.1,37.4,44.1,37.1,33.3,88,77,51,29.81,29.74,4,1,0,0.04
2013-4-20,44.6,37.6,28.4,33.0,19.0,9.9,75,49,28,30.07,29.82,9,2,0,0.00
2013-4-21,46.4,33.6,23.0,16.4,13.3,2.5,66,46,17,30.26,30.07,7,2,0,0.00
2013-4-22,55.4,38.7,19.4,20.6,11.5,3.7,77,39,12,30.38,30.20,6,1,0,0.02
2013-4-23,53.6,40.3,32.0,36.8,29.5,20.6,98,67,41,30.26,30.16,8,2,0,0.07
2013-4-24,62.6,43.6,26.6,32.1,26.9,15.0,90,58,20,30.21,29.79,5,1,0,0.00
2013-4-25,66.2,49.1,32.0,42.9,35.8,27.4,86,62,37,29.84,29.78,5,1,0,0.00
2013-4-26,62.6,51.4,42.8,42.0,35.0,27.8,78,55,33,29.88,29.80,7,1,0,0.00
2013-4-27,64.4,50.2,41.0,35.2,28.8,21.0,67,46,20,29.82,29.63,9,2,0,0.00
2013-4-28,55.4,42.8,30.2,32.6,25.3,21.2,81,53,29,29.83,29.51,10,2,0,0.01
2013-4-29,44.6,33.4,28.4,30.7,25.1,20.2,90,72,48,29.85,29.51,8,2,0,0.02
2013-4-30,48.2,34.6,23.0,25.2,19.5,12.5,86,58,25,30.15,29.86,6,1,0,0.00
2013-5-1,60.8,42.4,23.0,24.0,16.4,10.0,67,38,15,30.36,30.15,4,1,0,0.00
2013-5-2,55.4,42.1,30.2,41.8,33.1,22.2,98,72,39,30.36,30.28,5,0,0,0.21
2013-5-3,69.8,48.4,35.6,42.7,37.0,30.9,98,70,30,30.38,30.26,5,1,0,0.14
2013-5-4,73.4,51.8,30.2,43.0,36.1,27.9,98,61,29,30.32,30.09,5,1,0,0.00
2013-5-5,82.4,58.4,35.6,45.9,35.0,20.5,98,53,11,30.09,29.84,5,1,0,0.44
2013-5-6,87.8,62.5,37.4,44.6,35.4,24.7,86,46,11,29.85,29.64,6,1,0,0.00
2013-5-7,80.6,60.3,44.6,33.0,28.9,17.7,59,34,11,29.92,29.77,4,1,0,0.00
2013-5-8,82.4,58.0,33.8,37.2,27.1,12.5,90,44,8,29.98,29.89,4,1,0,0.00
2013-5-9,82.4,60.3,35.6,37.1,25.2,-1.3,84,38,4,30.10,29.96,8,1,0,0.44
2013-5-10,86.0,61.2,35.6,41.0,29.9,12.5,86,41,8,30.13,29.94,5,1,0,0.00
2013-5-11,77.0,60.6,39.2,44.0,37.8,28.2,80,46,18,30.03,29.81,5,2,0,0.00
2013-5-12,75.2,63.4,51.8,51.0,39.7,28.8,71,44,21,29.83,29.70,7,3,0,0.88
2013-5-13,62.6,51.1,41.0,43.1,38.1,32.8,98,64,33,29.78,29.61,7,1,0,0.18
2013-5-14,46.4,42.1,41.0,42.4,40.7,39.1,98,95,79,29.95,29.79,2,0,0,0.24
2013-5-15,50.0,44.2,41.0,42.3,40.9,39.3,98,89,73,29.89,29.84,4,1,0,0.21
2013-5-16,68.0,49.3,35.6,45.9,37.8,28.8,98,71,26,29.90,29.76,6,1,0,0.00
2013-5-17,64.4,49.5,33.8,48.6,39.7,30.9,98,72,45,29.81,29.73,4,1,0,0.18
2013-5-18,64.4,52.8,42.8,44.1,39.2,33.7,98,64,35,30.03,29.77,6,1,0,0.00
2013-5-19,68.0,52.9,42.8,40.9,36.9,31.1,84,58,27,30.22,30.04,7,1,0,0.95
2013-5-20,60.8,49.2,37.4,38.8,35.0,30.0,85,60,39,30.14,29.79,6,1,0,0.00
2013-5-21,51.8,45.5,42.8,49.5,42.2,35.4,98,88,74,29.80,29.53,3,1,0,0.89
2013-5-22,59.0,49.1,41.0,51.3,45.2,40.5,98,87,64,29.79,29.59,6,1,0,0.57
2013-5-23,50.0,45.9,37.4,47.7,40.5,34.7,98,82,59,29.86,29.74,4,1,0,0.00
2013-5-24,59.0,46.2,32.0,42.2,36.9,31.5,98,74,38,29.85,29.75,3,1,0,0.01
2013-5-25,59.0,47.3,42.8,48.8,44.5,42.1,98,90,69,29.82,29.79,5,1,0,0.63
2013-5-26,62.6,49.3,42.8,46.5,43.2,38.3,98,82,44,29.82,29.75,5,1,0,0.13
2013-5-27,62.6,50.4,41.0,46.6,43.1,40.5,98,79,50,29.79,29.59,5,1,0,0.17
2013-5-28,68.0,53.0,44.6,48.8,44.5,39.9,98,76,41,29.63,29.55,5,2,0,0.11
2013-5-29,66.2,53.5,42.8,45.1,41.0,37.7,84,64,42,29.63,29.55,4,1,0,0.00
2013-5-30,59.0,47.6,42.8,47.7,43.6,40.4,98,86,59,30.02,29.64,3,0,0,0.70
2013-5-31,60.8,48.4,41.0,48.9,42.8,39.5,98,83,50,30.17,30.02,4,1,0,0.40
2013-6-1,60.8,47.7,35.6,44.1,39.9,35.1,98,77,48,30.12,29.95,5,1,0,0.00
2013-6-2,71.6,52.4,42.8,49.4,43.9,40.1,98,76,36,29.99,29.90,8,2,0,0.09
2013-6-3,73.4,53.6,39.2,48.5,43.5,38.7,98,73,38,30.00,29.93,6,1,0,0.00
2013-6-4,78.8,59.6,41.0,49.2,41.6,35.6,98,59,21,30.04,29.87,4,1,0,0.00
2013-6-5,75.2,58.9,48.2,55.9,44.9,31.7,87,62,30,29.97,29.89,3,1,0,0.28
2013-6-6,71.6,50.1,37.4,48.1,40.4,34.7,98,75,32,29.99,29.86,3,1,0,0.00
2013-6-7,69.8,60.3,50.0,56.9,48.2,43.0,87,66,43,29.90,29.70,4,1,0,0.26
2013-6-8,62.6,53.0,41.0,48.8,43.4,39.8,98,72,46,29.94,29.89,5,1,0,0.01
2013-6-9,64.4,50.8,42.8,47.9,43.3,40.1,98,78,44,29.91,29.84,5,1,0,0.85
2013-6-10,73.4,52.3,35.6,46.4,40.7,35.1,98,70,28,29.92,29.76,4,1,0,0.01
2013-6-11,69.8,51.7,41.0,52.5,44.1,38.3,98,79,36,29.84,29.69,5,1,0,0.98
2013-6-12,68.0,54.0,44.6,46.7,42.6,35.4,98,70,34,29.96,29.85,6,1,0,0.57
2013-6-13,66.2,52.2,39.2,46.6,42.7,36.5,98,72,43,29.98,29.90,5,1,0,0.00
2013-6-14,68.0,54.3,46.4,50.2,45.8,42.7,93,74,46,29.97,29.91,4,1,0,0.01
2013-6-15,78.8,57.0,39.2,51.1,45.3,38.7,98,70,30,29.99,29.93,7,1,0,0.00
2013-6-16,77.0,57.2,44.6,51.2,46.7,43.6,98,72,35,30.04,29.98,5,1,0,0.00
2013-6-17,59.0,55.8,53.6,52.2,50.6,49.3,90,83,73,29.81,29.78,2,0,0,0.00
2013-6-18,73.4,56.3,44.6,53.9,48.7,43.6,98,78,39,29.83,29.74,4,0,0,0.11
2013-6-19,55.4,52.0,50.0,54.8,51.2,49.0,98,97,90,29.77,29.70,4,1,0,1.40
2013-6-20,71.6,57.7,51.8,61.7,55.1,51.3,98,92,70,29.83,29.63,4,1,0,0.24
2013-6-21,78.8,62.4,51.8,57.8,52.2,47.2,98,73,35,29.95,29.83,5,1,0,0.09
2013-6-22,71.6,59.3,50.0,57.8,51.9,47.2,98,79,49,29.91,29.82,7,1,0,0.18
2013-6-23,62.6,50.7,44.6,53.9,48.4,44.1,98,92,71,29.83,29.54,4,0,0,0.00
2013-6-24,68.0,57.6,46.4,54.0,49.9,45.4,98,77,55,29.53,29.44,5,1,0,0.00
2013-6-25,71.6,58.5,50.0,53.0,48.1,40.0,98,72,40,29.67,29.52,8,1,0,0.35
2013-6-26,75.2,58.6,44.6,48.4,43.8,39.5,94,61,35,29.94,29.68,6,1,0,0.00
2013-6-27,69.8,58.7,46.4,51.2,46.5,40.9,84,65,48,30.13,29.95,4,1,0,0.00
2013-6-28,77.0,63.6,50.0,56.6,51.2,46.4,98,67,35,30.18,30.02,6,1,0,0.00
2013-6-29,86.0,69.8,59.0,57.5,53.2,48.8,77,58,31,30.07,29.94,4,1,0,0.00
2013-6-30,89.6,72.8,55.4,57.9,50.9,41.7,88,52,20,30.02,29.95,5,1,0,0.00
2013-7-1,95.0,76.3,55.4,59.1,53.5,49.5,84,50,23,30.01,29.82,5,1,0,0.00
2013-7-2,89.6,72.9,59.0,59.1,53.6,38.5,79,54,20,30.00,29.83,5,1,0,0.00
2013-7-3,86.0,64.1,50.0,47.9,44.9,39.7,81,54,22,30.08,29.87,5,1,0,0.00
2013-7-4,77.0,63.0,55.4,51.1,45.4,40.0,75,54,33,29.91,29.85,6,1,0,0.00
2013-7-5,77.0,60.4,46.4,44.7,40.4,37.0,75,50,26,29.94,29.84,6,1,0,0.00
2013-7-6,75.2,55.0,42.8,47.9,42.4,37.7,87,65,31,29.98,29.88,3,1,0,0.00
2013-7-7,82.4,61.2,42.8,50.5,42.7,31.7,98,59,17,29.92,29.82,5,1,0,0.43
2013-7-8,82.4,62.1,42.8,50.3,44.4,38.9,98,58,23,29.95,29.88,6,1,0,0.00
2013-7-9,84.2,66.4,50.0,59.6,47.9,42.0,91,56,26,30.01,29.87,6,1,0,0.01
2013-7-10,80.6,64.5,48.2,54.2,47.2,37.4,98,59,23,29.90,29.66,7,1,0,0.00
2013-7-11,62.6,51.6,42.8,50.1,44.7,38.6,98,79,46,29.84,29.69,5,1,0,1.07
2013-7-12,71.6,53.8,41.0,44.1,40.0,32.8,98,64,25,29.92,29.84,7,1,0,0.00
2013-7-13,73.4,56.2,44.6,46.0,42.5,40.0,90,63,30,30.11,29.92,5,1,0,0.00
2013-7-14,62.6,51.1,42.8,52.1,46.0,40.1,98,84,55,30.05,29.93,6,1,0,0.78
2013-7-15,77.0,55.1,41.0,51.1,44.7,40.5,98,73,33,30.07,30.03,6,1,0,0.00
2013-7-16,82.4,61.0,41.0,51.7,44.0,37.0,98,62,20,30.09,29.92,5,1,0,0.00
2013-7-17,71.6,61.0,51.8,55.4,50.9,46.2,88,70,48,30.10,29.93,5,1,0,0.00
2013-7-18,86.0,67.2,53.6,56.7,53.3,48.7,98,66,30,30.13,30.02,5,1,0,0.00
2013-7-19,87.8,69.1,53.6,53.2,47.2,38.8,85,51,20,30.08,29.91,5,1,0,0.00
2013-7-20,87.8,67.5,50.0,51.8,47.6,43.5,98,56,22,29.92,29.73,5,1,0,0.00
2013-7-21,87.8,69.2,53.6,51.4,47.0,41.5,77,49,20,29.85,29.71,4,1,0,0.13
2013-7-22,84.2,67.8,53.6,50.7,46.2,42.5,71,49,25,29.93,29.72,5,1,0,0.00
2013-7-23,87.8,66.7,50.0,51.1,45.3,38.8,89,53,18,30.03,29.91,4,1,0,0.00
2013-7-24,91.4,69.4,50.0,51.8,45.6,37.4,85,49,16,30.00,29.90,6,1,0,0.00
2013-7-25,89.6,69.8,50.0,49.3,43.1,32.2,88,46,13,29.99,29.90,5,1,0,0.00
2013-7-26,82.4,66.1,53.6,43.8,40.4,36.4,55,41,22,30.05,29.90,7,1,0,0.00
2013-7-27,73.4,59.4,44.6,44.2,40.3,36.5,77,52,29,30.09,29.93,6,2,0,0.00
2013-7-28,71.6,57.5,44.6,49.3,44.3,39.8,86,63,40,29.98,29.94,5,1,0,0.00
2013-7-29,77.0,57.9,42.8,45.5,39.7,32.8,85,56,20,30.00,29.94,6,1,0,0.00
2013-7-30,86.0,63.6,44.6,48.1,43.3,39.6,90,53,23,30.10,30.00,5,1,0,0.00
2013-7-31,87.8,65.8,44.6,49.6,44.2,38.5,98,53,18,30.14,29.96,5,1,0,0.00
2013-8-1,87.8,67.0,46.4,52.2,47.4,42.0,87,54,22,29.97,29.81,4,1,0,0.44
2013-8-2,82.4,64.8,55.4,59.4,54.4,49.3,90,71,39,29.97,29.87,6,1,0,0.01
2013-8-3,82.4,64.7,57.2,60.7,57.0,53.9,98,79,41,30.20,29.94,5,1,0,0.34
2013-8-4,82.4,64.9,50.0,58.8,53.3,44.7,98,71,28,30.02,29.91,4,1,0,0.01
2013-8-5,89.6,67.5,50.0,54.9,48.3,38.5,98,58,17,29.96,29.84,4,1,0,0.00
2013-8-6,86.0,65.7,53.6,55.6,50.0,46.2,80,60,28,29.95,29.86,3,0,0,0.00
2013-8-7,86.0,68.1,50.0,54.9,49.2,42.4,98,58,23,29.94,29.84,4,1,0,0.00
2013-8-8,91.4,69.3,51.8,54.1,49.6,43.3,88,55,19,29.97,29.87,5,1,0,0.00
2013-8-9,91.4,70.8,53.6,54.8,49.7,37.2,85,53,15,29.95,29.81,5,1,0,0.00
2013-8-10,93.2,72.3,51.8,53.1,47.1,33.6,86,48,13,29.91,29.81,5,1,0,0.00
2013-8-11,89.6,65.5,51.8,60.2,52.9,46.5,98,69,26,29.93,29.84,4,1,0,0.30
2013-8-12,86.0,66.2,50.0,57.8,50.1,38.5,98,64,20,29.96,29.86,7,1,0,0.82
2013-8-13,84.2,67.1,50.0,52.8,44.9,36.1,85,50,18,30.01,29.88,5,1,0,0.00
2013-8-14,86.0,65.7,46.4,47.7,40.1,29.4,85,47,13,29.91,29.79,8,1,0,0.80
2013-8-15,80.6,66.1,53.6,57.5,49.7,41.4,89,59,28,29.86,29.79,6,1,0,0.08
2013-8-16,77.0,64.2,51.8,53.8,49.7,45.7,90,62,38,29.88,29.82,5,1,0,0.01
2013-8-17,71.6,60.2,53.6,60.5,54.8,48.1,98,83,59,29.89,29.84,6,1,0,1.10
2013-8-18,73.4,58.1,48.2,53.0,48.1,40.9,98,73,34,29.90,29.82,10,1,0,0.00
2013-8-19,77.0,58.9,50.0,53.1,42.9,33.7,80,58,24,29.95,29.82,5,1,0,0.00
2013-8-20,69.8,53.6,41.0,43.6,37.6,33.6,85,58,29,30.09,29.95,6,1,0,0.00
2013-8-21,78.8,56.6,35.6,44.1,38.5,32.7,98,58,19,30.13,29.96,5,1,0,0.00
2013-8-22,87.8,65.1,44.6,48.1,41.7,34.6,84,49,17,29.96,29.73,4,1,0,0.00
2013-8-23,80.6,61.8,46.4,54.0,47.1,42.1,88,62,31,29.75,29.61,6,1,0,0.00
2013-8-24,73.4,61.2,51.8,52.7,45.8,40.0,80,59,31,29.74,29.64,5,1,0,0.00
2013-8-25,77.0,60.0,46.4,45.9,40.6,36.4,77,51,25,29.85,29.73,6,1,0,0.00
2013-8-26,75.2,60.5,50.0,50.9,44.9,40.0,81,59,34,29.77,29.70,7,2,0,0.00
2013-8-27,71.6,61.0,51.8,47.3,43.2,37.0,74,54,34,29.84,29.75,6,2,0,0.00
2013-8-28,71.6,58.4,50.0,60.2,53.1,40.2,98,84,49,29.87,29.76,6,0,0,0.47
2013-8-29,66.2,58.1,51.8,60.2,54.3,51.3,98,88,67,29.87,29.78,4,1,0,0.09
2013-8-30,73.4,58.0,48.2,53.0,48.8,44.4,98,74,39,30.06,29.81,4,1,0,0.14
2013-8-31,77.0,58.3,42.8,51.2,46.7,42.3,98,70,36,30.08,29.89,5,1,0,0.00
2013-9-1,84.2,63.8,44.6,58.4,45.2,34.6,98,61,18,29.89,29.72,4,1,0,0.37
2013-9-2,68.0,60.1,57.2,58.4,57.1,52.7,98,91,58,29.92,29.77,5,2,0,0.39
2013-9-3,77.0,59.0,51.8,62.6,55.5,51.3,98,90,56,29.97,29.84,3,0,0,1.29
2013-9-4,80.6,61.1,50.0,62.5,54.7,49.5,98,82,38,30.05,29.95,0,0,0,0.01
2013-9-5,77.0,60.4,44.6,54.2,49.2,44.1,98,71,39,30.09,29.96,0,0,0,0.00
2013-9-6,71.6,58.8,50.0,56.6,50.9,45.0,98,76,58,30.02,29.95,0,0,0,0.01
2013-9-7,77.0,60.5,50.0,55.3,51.2,46.6,98,75,38,30.08,29.96,0,0,0,0.05
2013-9-8,82.4,61.5,46.4,53.6,49.1,45.9,98,70,29,30.13,29.87,0,0,0,0.00
2013-9-9,77.0,60.0,46.4,49.4,45.4,40.4,88,62,30,30.01,29.91,0,0,0,0.00
2013-9-10,51.8,42.2,37.4,46.2,40.5,36.9,98,94,81,30.08,29.99,0,0,0,0.00
2013-9-11,78.8,67.2,59.0,51.2,49.5,46.7,68,54,38,30.02,30.00,0,0,0,0.00
2013-9-12,89.6,67.7,50.0,56.6,49.2,43.0,98,58,20,30.02,29.85,0,0,0,0.00
2013-9-13,86.0,64.5,44.6,53.1,46.8,42.1,98,59,22,29.93,29.83,0,0,0,0.00
2013-9-14,86.0,62.4,42.8,51.5,43.3,29.4,98,60,13,29.91,29.79,0,0,0,0.00
2013-9-15,87.8,67.5,50.0,56.3,48.2,42.9,84,55,24,29.81,29.56,0,0,0,0.01
2013-9-16,60.8,53.8,46.4,58.4,53.0,45.9,98,97,85,29.74,29.53,0,0,0,0.00
2013-9-17,59.0,49.0,41.0,49.2,45.6,40.1,98,89,62,29.77,29.70,0,0,0,0.01
2013-9-18,62.6,47.3,35.6,47.3,39.8,35.1,98,79,42,29.89,29.74,2,0,0,0.01
2013-9-19,66.2,51.5,39.2,43.8,40.7,37.1,98,70,41,29.91,29.71,7,2,0,0.00
2013-9-20,69.8,56.8,44.6,47.6,42.1,38.2,80,59,40,29.71,29.42,7,2,0,0.00
2013-9-21,60.8,52.8,44.6,50.7,44.6,37.8,90,74,58,29.47,29.40,4,1,0,0.19
2013-9-22,53.6,46.8,41.0,43.8,39.9,35.9,86,77,65,29.43,29.29,7,2,0,0.00
2013-9-23,55.4,45.0,37.4,45.0,38.2,33.6,90,77,53,29.72,29.38,8,2,0,0.21
2013-9-24,57.2,41.5,32.0,37.5,33.1,26.0,98,76,32,29.79,29.67,4,1,0,0.01
2013-9-25,57.2,40.4,30.2,37.9,31.8,29.2,98,75,38,29.96,29.80,8,1,0,0.00
2013-9-26,55.4,39.9,28.4,39.5,32.4,27.9,98,77,42,30.03,29.81,5,1,0,0.00
2013-9-27,46.4,41.4,37.4,44.1,38.7,31.3,98,90,68,29.80,29.54,3,1,0,1.81
2013-9-28,51.8,45.4,41.0,43.4,39.6,36.5,98,81,67,29.54,28.97,8,3,0,0.00
2013-9-29,57.2,46.7,41.0,42.3,37.2,34.4,98,71,50,29.20,28.97,6,3,0,0.18
2013-9-30,53.6,44.4,37.4,40.5,35.9,32.4,98,74,50,29.51,28.94,6,2,0,0.01
2013-10-1,53.6,43.0,32.0,34.5,31.6,27.7,86,66,42,29.87,29.52,4,1,0,0.00
2013-10-2,50.0,38.1,26.6,37.5,32.2,26.1,98,81,55,30.07,29.87,3,1,0,0.00
2013-10-3,53.6,38.5,28.4,37.5,31.1,27.0,98,79,38,30.26,30.07,4,1,0,0.00
2013-10-4,53.6,41.9,30.2,39.9,33.6,27.1,98,74,49,30.27,30.09,5,2,0,0.94
2013-10-5,62.6,51.2,44.6,45.2,40.2,35.1,75,66,51,30.11,29.97,5,2,0,0.00
2013-10-6,60.8,52.8,50.0,47.7,43.2,36.2,82,70,57,29.97,29.58,4,2,0,0.00
2013-10-7,59.0,49.0,42.8,42.3,37.0,32.8,98,65,43,29.61,29.49,6,2,0,0.02
2013-10-8,44.6,37.5,32.0,42.3,33.1,29.1,98,85,65,30.01,29.61,6,1,0,0.91
2013-10-9,50.0,37.7,28.4,38.3,32.8,27.9,98,84,54,30.02,29.68,5,1,0,0.05
2013-10-10,50.0,38.4,30.2,37.4,31.6,26.8,98,79,45,29.91,29.68,4,1,0,0.02
2013-10-11,50.0,38.4,30.2,34.0,30.4,26.8,98,75,50,29.98,29.91,4,0,0,0.00
2013-10-12,44.6,37.0,33.8,36.1,33.2,29.7,98,86,69,30.13,29.95,3,0,0,0.00
2013-10-13,51.8,38.5,30.2,35.2,31.7,27.4,98,79,46,30.27,30.13,4,1,0,0.00
2013-10-14,57.2,37.7,24.8,38.8,31.5,22.6,98,81,47,30.35,30.27,4,1,0,0.00
2013-10-15,48.2,38.4,32.0,42.3,36.4,31.5,98,93,69,30.27,30.13,3,0,0,0.08
2013-10-16,51.8,41.9,32.0,44.1,38.6,31.5,98,89,60,30.17,30.12,4,1,0,0.02
2013-10-17,50.0,34.8,26.6,40.3,32.7,26.1,98,93,66,30.27,30.15,2,0,0,0.00
2013-10-18,57.2,38.0,28.4,41.7,33.9,27.9,98,87,55,30.19,30.04,2,0,0,0.00
2013-10-19,60.8,42.2,30.2,43.1,35.6,29.7,98,81,48,30.09,30.04,5,1,0,0.00
2013-10-20,64.4,45.6,33.8,46.2,38.9,33.0,98,80,48,30.11,30.07,4,1,0,0.00
2013-10-21,62.6,43.5,32.0,46.4,38.4,31.5,98,85,50,30.12,30.03,4,0,0,0.00
2013-10-22,60.8,42.7,30.2,45.6,37.9,29.7,98,85,51,30.10,30.01,3,0,0,0.00
2013-10-23,64.4,44.6,32.0,47.9,39.8,31.5,98,86,54,30.07,29.97,3,0,0,0.00
2013-10-24,62.6,43.6,33.8,44.7,38.2,33.3,98,84,47,30.03,29.94,2,0,0,0.75
2013-10-25,57.2,39.0,28.4,44.3,34.7,-55.8,98,88,59,30.17,30.03,3,0,0,0.00
2013-10-26,53.6,40.1,32.0,44.1,37.0,31.5,98,90,62,30.20,29.94,3,0,0,0.31
2013-10-27,48.2,39.3,30.2,40.5,34.7,23.9,98,84,67,30.20,29.88,8,2,0,0.27
2013-10-28,39.2,28.3,21.2,24.8,21.6,18.2,89,76,55,30.21,29.98,6,1,0,0.00
2013-10-29,46.4,29.6,19.4,27.8,22.1,16.7,90,76,44,29.99,29.76,3,1,0,0.00
2013-10-30,50.0,37.6,28.4,32.6,28.5,24.2,85,71,49,29.82,29.68,3,1,0,0.00
2013-10-31,51.8,38.9,32.0,38.1,33.1,29.4,98,81,53,29.97,29.72,3,1,0,0.01
2013-11-1,42.8,35.3,28.4,38.6,33.6,27.9,98,94,79,30.00,29.80,2,0,0,0.01
2013-11-2,35.6,31.8,28.4,35.1,30.8,26.1,98,96,90,29.79,29.42,3,1,0,0.05
2013-11-3,33.8,28.9,21.2,30.1,26.2,18.7,98,90,82,29.90,29.61,3,1,0,0.00
2013-11-4,35.6,24.6,14.0,30.4,21.8,10.6,98,89,75,29.97,29.84,1,0,0,0.06
2013-11-5,33.8,29.8,26.6,31.5,28.6,26.1,98,95,85,29.98,29.82,1,0,0,0.00
2013-11-6,33.8,31.0,28.4,33.3,29.8,27.9,98,96,83,30.14,29.96,0,0,0,0.00
2013-11-7,35.6,32.8,30.2,33.3,31.9,29.7,98,97,88,29.95,29.46,2,0,0,0.05
2013-11-8,42.8,33.5,28.4,36.7,31.7,27.9,98,93,77,29.91,29.79,3,1,0,0.46
2013-11-9,37.4,31.5,26.6,32.7,30.2,26.1,98,95,82,30.01,29.91,3,0,0,0.02
2013-11-10,33.8,31.2,26.6,33.3,29.7,26.1,98,94,85,30.22,30.00,2,0,0,0.01
2013-11-11,37.4,29.1,19.4,29.7,26.0,17.2,98,89,73,30.23,29.96,4,2,0,0.02
2013-11-12,46.4,39.1,33.8,38.2,34.1,30.1,90,83,70,30.00,29.87,5,3,0,0.86
2013-11-13,44.6,38.3,32.0,37.8,34.9,30.9,98,88,73,30.11,29.97,4,1,0,0.04
2013-11-14,41.0,33.2,28.4,35.1,31.3,27.9,98,93,72,30.05,29.63,3,0,0,0.15
2013-11-15,32.0,31.1,30.2,31.5,30.6,29.7,98,98,98,29.62,29.38,2,0,0,0.09
2013-11-17,28.4,28.2,26.6,27.9,27.7,26.1,98,98,98,29.48,29.43,0,0,0,0.00
2013-11-18,30.2,24.1,14.0,27.4,21.9,10.3,98,91,83,29.57,29.45,0,0,0,0.00
2013-11-19,14.0,6.1,-7.6,10.3,1.3,-13.1,85,80,73,29.95,29.43,0,0,0,0.00
2013-11-20,19.4,3.4,-13.0,18.9,-1.6,-18.6,84,77,69,30.24,29.96,0,0,0,0.00
2013-11-21,23.0,17.7,10.4,18.3,13.2,6.3,86,82,75,30.46,30.23,0,0,0,0.00
2013-11-22,30.2,20.8,14.0,23.6,17.0,11.1,98,85,73,30.53,30.35,0,0,0,0.00
2013-11-23,30.2,25.0,17.6,25.7,21.2,14.4,92,85,78,30.37,30.07,0,0,0,0.00
2013-11-24,32.0,25.3,14.0,27.9,22.8,11.1,98,90,81,30.16,30.09,0,0,0,0.00
2013-11-25,35.6,29.8,26.6,31.0,27.7,24.3,98,92,80,30.19,30.09,0,0,0,0.00
2013-11-26,35.6,28.3,21.2,30.7,26.7,20.7,98,94,79,30.09,29.94,0,0,0,0.00
2013-11-27,35.6,25.6,21.2,31.5,24.1,19.0,98,94,78,30.00,29.87,0,0,0,0.00
2013-11-28,37.4,31.3,23.0,33.3,29.2,22.5,98,92,79,29.93,29.81,0,0,0,0.02
2013-11-29,37.4,32.5,30.2,35.1,31.7,29.7,98,97,86,30.01,29.91,0,0,0,0.09
2013-11-30,37.4,33.6,32.0,36.9,33.1,31.5,98,98,98,29.99,29.79,3,0,0,0.28
2013-12-1,42.8,34.3,30.2,36.7,32.8,29.7,98,94,78,29.78,29.37,4,1,0,2.08
2013-12-2,30.2,11.2,5.0,29.7,7.1,0.2,98,83,79,30.20,29.38,5,2,0,0.00
2013-12-3,12.2,8.3,3.2,7.5,3.8,-1.6,84,81,77,30.32,30.20,3,1,0,0.00
2013-12-4,14.0,5.4,-4.0,6.7,0.5,-9.4,83,80,72,30.27,30.12,2,0,0,0.00
2013-12-5,12.2,4.3,-4.0,5.8,-0.8,-9.1,80,79,73,30.20,30.08,1,0,0,0.00
2013-12-6,3.2,-3.2,-16.6,-1.6,-9.2,-23.4,80,75,69,30.28,30.18,0,0,0,0.00
2013-12-7,3.2,-11.7,-23.8,-4.6,-18.5,-30.9,76,71,63,30.26,30.08,0,0,0,0.00
2013-12-8,14.0,5.6,-7.6,10.6,0.3,-13.4,86,78,67,30.20,30.04,1,0,0,0.74
2013-12-9,23.0,16.7,12.2,18.6,13.1,8.6,89,85,81,30.06,29.98,2,0,0,0.00
2013-12-10,30.2,22.8,17.6,27.1,20.0,14.7,98,89,80,30.13,30.00,1,0,0,0.00
2013-12-11,26.6,23.6,19.4,26.1,22.0,16.7,98,94,89,30.07,29.85,2,0,0,0.00
2013-12-12,30.2,27.7,26.6,29.7,27.2,26.1,98,98,98,29.85,29.72,0,0,0,0.00
2013-12-13,32.0,28.3,23.0,29.7,27.5,22.5,98,97,87,30.03,29.80,0,0,0,0.00
2013-12-14,35.6,32.5,30.2,35.1,31.9,29.7,98,98,88,30.01,29.79,1,0,0,0.12
2013-12-15,37.4,29.9,19.4,32.7,28.0,18.9,98,93,83,30.00,29.76,3,1,0,0.13
2013-12-16,32.0,25.0,17.6,29.7,23.4,15.2,98,94,84,30.14,29.87,4,1,0,0.00
2013-12-17,42.8,33.3,28.4,33.7,27.6,18.9,98,78,65,29.86,29.60,4,1,0,0.98
2013-12-18,30.2,20.4,6.8,29.7,17.1,3.5,98,87,73,30.12,29.72,4,1,0,0.00
2013-12-19,14.0,7.7,-2.2,9.0,3.1,-6.8,86,81,76,30.15,29.76,3,1,0,0.00
2013-12-20,21.2,18.1,14.0,17.9,14.8,9.0,89,87,80,29.76,29.35,3,1,0,0.00
2013-12-21,28.4,22.4,17.6,24.8,19.7,14.9,98,89,81,29.90,29.61,0,0,0,0.00
2013-12-22,32.0,26.8,21.2,29.7,25.5,19.0,98,95,85,29.98,29.76,0,0,0,0.68
2013-12-23,32.0,28.5,21.2,31.5,27.6,20.0,98,96,86,30.12,29.70,3,0,0,0.00
2013-12-24,30.2,17.8,10.4,29.7,15.4,7.1,98,90,86,30.30,30.12,2,0,0,0.00
2013-12-25,32.0,26.2,12.2,28.0,24.3,9.3,98,92,84,30.26,30.01,3,1,0,0.00
2013-12-26,35.6,32.9,28.4,35.1,32.3,25.8,98,97,90,30.02,29.84,4,2,0,0.66
2013-12-27,41.0,35.9,32.0,35.3,31.5,26.2,98,84,72,30.09,29.65,4,2,0,1.31
2013-12-28,33.8,29.4,23.0,27.4,24.6,20.3,97,82,68,30.30,30.07,3,0,0,0.00
2013-12-29,37.4,29.4,21.2,32.7,28.0,20.7,98,95,82,30.09,29.94,3,0,0,0.04
2013-12-30,32.0,30.3,21.2,31.5,29.8,20.7,98,98,98,30.01,29.71,0,0,0,0.00